Wind_Speed
12 11 11 11 11 12 12 13 14 15 16 18 19 20 21 22 23 24 25 26 26 26 26 27 27 27 27 26 26 27 27 27 28 30 32 33 33 35 37 39 41 43 45
13 13 13 13 14 14 15 16 17 18 19 20 21 21 23 24 25 26 27 28 28 28 28 28 28 29 29 28 29 29 29 29 29 30 32 33 34 34 36 37 40 42 45
15 15 15 16 16 16 17 18 19 20 21 22 23 24 25 26 27 28 29 30 30 30 30 30 30 30 31 31 31 31 31 31 30 30 31 33 34 35 36 37 38 40 43
17 17 18 18 19 19 20 21 22 23 24 25 26 26 27 28 29 30 30 31 31 32 32 32 32 32 32 33 33 33 33 32 32 31 32 33 34 35 36 36 37 38 40
19 19 20 21 21 22 23 24 25 26 26 27 28 28 29 30 31 32 33 33 33 34 34 34 34 34 34 34 34 34 34 34 33 33 33 33 34 35 36 36 36 37 38
20 21 21 22 23 24 25 26 27 28 28 29 30 31 32 33 33 34 34 35 35 36 36 36 35 35 35 35 35 35 35 35 35 34 34 34 35 35 36 35 35 36 37
22 22 24 25 26 27 28 28 29 30 31 32 32 33 34 35 36 36 36 37 37 37 37 37 37 37 36 36 35 36 36 36 36 35 34 34 35 36 36 36 35 35 36
24 25 26 27 28 29 30 31 32 33 33 34 35 36 36 38 38 38 39 39 39 39 39 38 39 39 38 37 36 36 37 37 37 35 34 34 35 36 36 36 35 35 35
25 26 28 29 30 31 32 33 34 35 36 37 38 39 39 40 40 41 41 40 40 41 41 41 40 40 40 39 37 37 37 38 37 35 35 35 35 36 36 36 35 35 35
28 29 31 32 32 33 35 36 37 38 39 40 41 41 42 42 43 43 44 43 43 42 43 43 42 41 41 40 39 39 38 38 37 36 36 35 35 36 36 36 35 35 35
32 33 33 34 35 36 38 39 41 42 43 43 43 44 45 45 45 46 46 46 46 45 45 44 44 44 43 42 41 40 39 38 37 37 36 36 36 36 36 35 35 35 35
33 34 36 37 38 40 41 42 44 45 46 46 46 47 48 48 48 49 49 49 49 48 46 46 46 46 45 43 42 41 40 39 38 37 36 37 37 37 36 35 35 35 35
36 37 39 40 41 42 44 45 46 48 48 49 50 51 51 50 51 51 52 52 51 50 49 48 47 47 47 45 43 42 41 40 39 38 37 37 37 36 36 36 36 35 35
38 39 41 42 43 45 46 48 49 49 51 53 54 54 54 53 53 54 55 54 54 54 53 51 50 49 48 46 45 44 43 42 40 38 37 37 36 36 36 36 36 35 35
40 41 43 44 46 47 49 51 52 54 55 56 56 57 57 57 56 57 57 57 57 56 56 55 53 51 49 47 46 45 44 43 41 39 38 37 36 36 36 36 35 35 34
42 44 45 47 48 50 52 53 55 56 57 58 59 60 60 60 59 60 60 59 59 59 58 56 54 53 51 49 47 46 44 43 42 40 39 37 36 36 36 35 34 34 33
44 46 47 49 51 52 54 55 56 58 59 60 62 63 63 63 63 63 62 61 61 61 60 57 54 53 51 49 47 45 44 43 42 40 39 37 36 35 35 35 34 34 33
46 48 50 51 53 55 56 58 59 60 61 62 63 64 65 65 65 65 65 64 62 61 60 57 55 53 51 49 47 45 43 42 41 39 38 37 36 35 34 34 34 34 34
49 50 52 54 56 57 59 60 62 63 64 64 65 65 66 66 65 65 64 64 62 60 59 57 54 52 49 48 46 44 42 41 40 39 37 36 35 34 33 33 33 33 33
52 53 55 57 58 60 61 62 63 64 65 65 65 65 65 65 63 62 61 60 58 57 56 54 51 48 46 44 43 41 40 40 38 36 35 34 33 33 33 33 33 32 32
55 57 58 60 60 61 62 63 63 64 64 64 63 62 62 61 59 57 54 53 52 50 49 47 45 43 41 40 39 38 37 37 35 34 33 32 33 33 32 32 31 31 31
58 58 59 59 60 60 61 61 61 61 61 60 59 57 55 54 52 50 49 47 45 43 41 40 38 37 35 36 36 35 34 34 33 32 32 32 32 31 31 31 30 29 29
57 57 57 57 57 58 58 57 57 57 55 54 53 51 49 47 44 43 41 39 37 35 32 31 30 30 31 31 31 30 30 30 29 29 30 30 30 30 30 29 28 28 27
54 54 54 54 54 53 53 52 51 50 48 47 46 44 41 38 36 35 33 31 28 26 25 24 25 25 26 27 26 26 27 27 27 27 28 28 28 28 28 27 26 26 25
50 50 50 49 48 48 47 47 45 44 42 40 37 34 32 30 28 26 24 23 22 20 19 19 20 21 22 22 23 24 24 24 24 25 25 26 26 26 26 25 25 24 24
46 45 45 44 44 43 42 41 40 37 34 31 29 27 24 23 21 19 18 17 16 15 15 15 15 16 16 18 19 20 20 21 22 23 23 23 23 24 24 24 24 24 24
Wind_Direction
246 252 258 266 273 279 285 289 293 296 299 302 306 309 311 313 314 315 317 319 319 318 317 316 315 314 312 311 309 306 303 299 293 288 285 282 277 271 265 261 258 255 253
250 255 262 269 274 279 284 288 291 294 298 301 304 306 308 311 313 314 316 316 316 316 316 315 314 313 312 311 309 308 306 302 296 290 287 284 281 276 271 266 261 258 255
255 260 265 270 274 279 284 287 290 293 297 300 301 304 306 309 311 312 313 314 314 314 314 313 312 312 311 311 309 309 307 304 298 293 289 286 283 279 275 270 265 261 257
259 264 268 272 276 280 283 286 289 292 295 299 300 302 304 307 309 310 310 311 312 312 312 311 310 310 310 309 308 308 307 304 300 295 291 288 284 281 277 273 268 264 260
264 268 272 275 278 281 284 287 289 292 295 297 299 301 303 305 306 308 308 309 309 310 310 309 308 308 308 308 308 307 306 304 301 297 293 289 285 282 279 275 271 267 264
268 270 274 277 279 282 284 287 289 292 294 295 297 299 302 304 305 306 306 307 307 307 308 308 307 307 307 307 307 306 305 304 302 298 294 289 285 283 280 277 272 268 265
271 273 276 279 281 283 285 288 289 291 292 294 296 297 300 302 303 304 304 305 305 305 306 306 306 306 305 305 305 305 304 303 301 299 295 290 286 283 280 278 274 269 266
274 276 278 280 282 284 286 287 288 290 292 293 295 296 298 300 301 302 303 304 304 303 303 303 303 304 304 304 303 303 303 303 301 299 295 290 286 282 280 278 275 271 267
275 277 279 281 283 285 286 287 288 289 291 293 294 296 298 299 299 300 301 302 302 302 302 302 302 302 303 303 302 302 302 301 300 298 295 291 287 283 280 277 274 271 268
276 277 280 282 283 285 287 287 288 289 291 292 294 295 296 297 297 298 299 299 300 300 301 300 300 301 301 301 301 301 300 300 298 297 295 291 288 284 281 277 274 272 269
278 279 280 283 284 286 287 288 288 289 291 292 292 293 295 296 296 296 297 297 298 298 299 298 298 298 299 299 299 299 299 299 297 295 294 291 288 285 282 279 276 273 270
279 280 281 283 285 286 287 288 288 289 290 291 291 293 294 294 294 294 295 295 296 296 297 296 296 296 297 297 298 297 297 297 296 294 292 289 287 285 282 279 277 274 271
281 282 283 284 285 286 287 287 288 289 288 289 290 292 293 293 292 292 293 293 294 294 294 294 294 294 295 295 295 296 295 295 295 292 290 288 286 284 282 279 277 275 272
282 283 284 284 285 286 287 287 288 288 288 289 290 291 292 291 291 291 291 291 291 292 292 292 292 292 292 292 292 293 292 292 292 291 288 287 285 283 282 279 277 276 273
284 285 285 285 286 287 287 287 288 288 289 289 289 289 289 289 289 289 289 289 289 289 289 290 290 289 289 289 289 290 289 289 289 289 287 285 283 282 281 280 278 276 273
286 286 287 287 287 287 287 288 288 288 288 289 289 288 288 288 287 287 287 286 286 286 286 286 286 285 284 285 286 286 286 285 286 286 285 283 281 281 280 279 278 276 273
287 287 288 288 288 288 288 288 288 288 288 288 288 288 288 287 287 286 285 285 284 284 283 282 282 281 281 281 282 282 282 283 283 283 283 282 281 280 279 278 277 276 274
290 290 289 289 289 289 289 289 288 288 287 287 287 287 287 287 286 286 285 284 283 282 281 280 279 278 278 278 278 278 279 279 279 279 280 280 280 280 279 278 277 276 275
292 292 291 291 291 291 290 290 290 289 289 288 288 287 286 286 286 285 285 284 282 281 280 278 278 276 275 274 274 274 274 275 276 277 277 277 278 278 279 278 277 276 275
293 293 293 292 292 291 291 291 291 290 290 289 289 288 288 287 286 286 285 284 282 280 279 277 276 274 272 271 271 271 272 271 271 273 274 276 278 279 278 278 277 276 275
295 294 294 293 293 293 292 292 292 292 291 291 290 290 289 288 288 287 285 284 282 280 278 275 272 269 267 267 267 269 268 267 268 271 273 276 278 279 279 279 278 276 275
296 296 295 295 295 295 295 295 294 294 293 293 292 291 290 290 289 287 286 285 282 279 277 272 268 266 264 263 263 264 264 265 267 270 272 275 278 278 278 278 277 276 275
298 298 298 297 297 297 297 297 297 297 297 295 293 292 291 290 289 288 287 285 282 277 274 269 264 262 261 260 261 261 264 266 269 271 272 274 276 277 278 278 275 274 272
299 300 300 300 299 299 300 300 300 300 299 298 297 295 292 290 289 288 287 285 280 276 271 266 261 260 258 259 261 262 263 265 270 273 273 274 276 277 278 276 274 272 268
301 302 303 303 303 303 303 303 303 302 302 301 300 298 295 291 291 290 288 284 278 272 267 262 259 258 257 257 258 261 263 267 271 273 274 275 277 278 276 274 272 270 266
304 305 305 305 306 307 307 307 306 305 305 304 303 301 298 296 294 292 290 283 275 269 263 259 257 255 258 260 262 263 265 269 272 275 276 277 278 279 277 273 271 268 265
Height
5848 5849 5849 5849 5848 5848 5847 5847 5846 5845 5843 5842 5840 5838 5836 5834 5831 5829 5826 5823 5821 5818 5815 5812 5809 5806 5803 5800 5798 5795 5793 5791 5788 5785 5783 5782 5781 5781 5782 5783 5784 5785 5787
5845 5845 5845 5845 5844 5844 5843 5842 5841 5840 5839 5837 5835 5833 5831 5829 5826 5823 5821 5818 5815 5811 5808 5805 5802 5799 5796 5793 5790 5787 5784 5782 5780 5777 5774 5772 5771 5770 5770 5771 5772 5773 5774
5841 5841 5840 5840 5839 5839 5838 5837 5836 5835 5833 5831 5829 5827 5825 5823 5820 5817 5814 5811 5808 5805 5802 5798 5795 5792 5788 5785 5782 5778 5775 5773 5770 5768 5765 5762 5761 5759 5759 5759 5760 5761 5762
5836 5836 5835 5835 5834 5833 5832 5831 5830 5828 5827 5825 5823 5821 5818 5816 5814 5811 5808 5804 5801 5798 5794 5791 5787 5784 5780 5777 5773 5770 5766 5763 5761 5758 5756 5753 5751 5749 5748 5748 5748 5749 5750
5831 5830 5830 5829 5828 5827 5826 5824 5823 5821 5819 5818 5816 5813 5811 5809 5806 5803 5800 5797 5794 5790 5786 5783 5779 5776 5772 5768 5765 5761 5757 5754 5751 5748 5746 5743 5740 5738 5737 5737 5737 5737 5738
5825 5824 5824 5823 5821 5820 5819 5817 5815 5814 5812 5810 5808 5806 5803 5801 5798 5795 5792 5789 5785 5782 5778 5774 5771 5767 5763 5759 5756 5752 5748 5744 5741 5738 5735 5733 5730 5728 5727 5726 5726 5726 5727
5819 5818 5817 5816 5814 5813 5811 5809 5807 5806 5804 5802 5800 5797 5795 5792 5789 5786 5783 5780 5776 5773 5769 5765 5762 5758 5754 5750 5746 5742 5738 5734 5731 5728 5725 5722 5719 5717 5716 5715 5715 5715 5716
5812 5811 5809 5808 5806 5804 5803 5801 5799 5797 5795 5793 5791 5788 5786 5783 5780 5777 5774 5770 5767 5763 5760 5756 5752 5748 5744 5740 5737 5732 5728 5724 5721 5718 5715 5712 5709 5707 5705 5705 5704 5704 5704
5804 5803 5801 5799 5798 5796 5794 5792 5790 5788 5787 5784 5782 5779 5776 5773 5769 5766 5763 5760 5756 5753 5749 5745 5742 5738 5734 5730 5726 5722 5718 5713 5710 5707 5704 5701 5698 5696 5694 5693 5693 5692 5693
5796 5794 5793 5791 5789 5787 5785 5783 5781 5779 5777 5774 5771 5768 5765 5762 5759 5755 5752 5749 5746 5742 5738 5734 5730 5727 5723 5719 5715 5711 5707 5703 5699 5696 5693 5690 5688 5685 5683 5682 5681 5681 5681
5787 5786 5784 5782 5780 5778 5776 5774 5771 5769 5766 5764 5761 5758 5754 5751 5747 5743 5740 5736 5733 5730 5726 5722 5718 5714 5711 5707 5703 5700 5696 5692 5689 5685 5682 5679 5676 5674 5672 5671 5670 5669 5669
5778 5776 5774 5772 5770 5768 5766 5763 5760 5757 5754 5751 5748 5745 5742 5738 5734 5731 5727 5723 5720 5717 5714 5710 5705 5701 5698 5695 5691 5688 5684 5681 5678 5675 5671 5668 5665 5663 5661 5660 5659 5658 5658
5769 5767 5764 5762 5760 5757 5754 5751 5748 5744 5741 5738 5735 5732 5729 5725 5721 5717 5713 5709 5705 5702 5699 5696 5692 5688 5685 5682 5678 5675 5672 5669 5666 5663 5660 5657 5654 5652 5650 5648 5647 5646 5646
5759 5756 5754 5751 5748 5745 5742 5738 5735 5732 5728 5724 5721 5717 5714 5710 5706 5702 5698 5694 5690 5687 5684 5681 5678 5674 5671 5668 5665 5662 5659 5656 5654 5651 5649 5646 5643 5641 5639 5637 5636 5635 5634
5747 5744 5742 5739 5735 5732 5729 5725 5721 5717 5713 5709 5705 5701 5698 5695 5691 5686 5681 5678 5674 5671 5667 5665 5662 5659 5656 5654 5651 5648 5645 5643 5641 5639 5637 5634 5632 5630 5628 5626 5625 5623 5623
5735 5732 5729 5726 5722 5718 5715 5711 5706 5702 5697 5692 5688 5684 5680 5676 5673 5669 5664 5660 5657 5653 5650 5648 5646 5643 5641 5638 5636 5634 5632 5630 5628 5626 5624 5622 5620 5618 5616 5615 5613 5612 5611
5723 5719 5716 5712 5708 5704 5699 5695 5691 5686 5680 5675 5669 5664 5660 5656 5652 5649 5645 5641 5638 5634 5631 5630 5628 5626 5624 5622 5621 5620 5618 5616 5615 5613 5612 5610 5608 5607 5605 5603 5602 5601 5600
5709 5705 5701 5697 5692 5687 5682 5677 5672 5668 5663 5658 5651 5645 5640 5635 5631 5627 5623 5620 5618 5614 5612 5610 5609 5608 5607 5606 5605 5604 5604 5603 5601 5600 5599 5598 5596 5595 5593 5592 5591 5590 5589
5695 5690 5686 5680 5675 5670 5664 5658 5653 5647 5642 5636 5631 5625 5619 5614 5610 5606 5601 5598 5596 5593 5591 5590 5590 5590 5589 5590 5590 5589 5589 5589 5588 5587 5586 5585 5584 5583 5582 5581 5580 5578 5577
5679 5674 5668 5663 5657 5651 5645 5639 5633 5627 5621 5615 5609 5603 5598 5593 5589 5585 5580 5577 5574 5572 5571 5570 5571 5571 5572 5573 5574 5574 5575 5575 5575 5575 5574 5574 5573 5572 5571 5570 5568 5567 5566
5663 5657 5650 5644 5638 5632 5625 5619 5612 5606 5599 5593 5588 5582 5576 5571 5568 5564 5561 5558 5555 5553 5552 5552 5553 5555 5557 5558 5559 5560 5561 5562 5562 5563 5563 5562 5562 5561 5560 5558 5557 5556 5555
5644 5638 5632 5625 5619 5612 5605 5598 5592 5585 5579 5573 5568 5563 5557 5552 5548 5545 5543 5540 5537 5536 5536 5536 5538 5540 5542 5544 5546 5547 5549 5550 5551 5551 5551 5551 5551 5550 5549 5548 5547 5546 5545
5626 5620 5614 5607 5600 5593 5587 5580 5573 5566 5560 5554 5548 5544 5540 5536 5532 5529 5527 5524 5523 5522 5523 5524 5526 5528 5530 5532 5534 5536 5538 5539 5540 5540 5541 5541 5540 5539 5538 5537 5536 5536 5535
5610 5603 5597 5590 5583 5576 5570 5563 5557 5550 5544 5538 5532 5528 5524 5521 5519 5516 5514 5512 5512 5512 5513 5514 5517 5519 5521 5523 5525 5527 5529 5530 5531 5531 5531 5531 5530 5529 5529 5528 5527 5527 5527
5594 5588 5582 5575 5568 5562 5555 5549 5542 5536 5530 5524 5519 5515 5512 5510 5508 5506 5505 5504 5503 5504 5506 5507 5509 5511 5513 5515 5517 5519 5520 5521 5522 5522 5522 5521 5521 5520 5519 5519 5518 5518 5518
5581 5575 5568 5562 5556 5549 5542 5536 5529 5524 5518 5513 5509 5506 5504 5502 5500 5499 5498 5497 5497 5498 5500 5502 5504 5506 5508 5509 5511 5512 5513 5514 5514 5514 5513 5513 5512 5511 5510 5510 5510 5509 5510